"Pseudo-MPEC" for C1CLG85

Created 2026 Mar 19 7:35:08 UT using Find_Orb

Click here for an explanation of pseudo-MPECs

 
 Astrometry: 
     C1CLG85*1C2026 02 26.25837410 01 14.956+23 54 13.25   ~2Q6o 21.51GVNEOCPV00
     C1CLG85 1C2026 02 26.26397910 01 16.144+23 53 46.64   ~2Q6o 22.75GVNEOCPV00
     C1CLG85 1C2026 02 26.26956610 01 17.353+23 53 20.44   ~2Q6o 21.39GVNEOCPV00
     C1CLG85 1C2026 02 26.27515010 01 18.563+23 52 53.58   ~2Q6o 22.44GVNEOCPV00
     C1CLG85 1C2026 02 26.45446410 01 57.511+23 38 35.02   ~2QBK 21.37GVNEOCPV00
     C1CLG85 1C2026 02 26.45526110 01 57.684+23 38 30.91   ~2QBK 22.28GVNEOCPV00
     C1CLG85 1C2026 02 26.45605710 01 57.839+23 38 27.06   ~2QBK 21.80GVNEOCPV00
     C1CLG85 1C2026 02 26.45685010 01 58.026+23 38 23.28   ~2QBK 21.83GVNEOCPV00
     C1CLG85 KC2026 02 27.22195710 04 58.491+22 41 16.96   ~2R6K 21.2 GWNEOCPH01
     C1CLG85 KC2026 02 27.22503110 04 59.070+22 41 03.85   ~2R6K 21.9 GWNEOCPH01
     C1CLG85 KC2026 02 27.22983210 04 59.984+22 40 43.39   ~2R6K 21.6 GWNEOCPH01
     C1CLG85 KC2026 02 27.23294510 05 00.582+22 40 30.09   ~2R6K 21.9 GWNEOCPH01

Station data:
(H01) Magdalena Ridge Observatory, Socorro  (N33.984833 W107.189333)  US/New
   Mexico.  Observers W. H. Ryan, E. V. Ryan. Measurer W. H. Ryan. 2.4-m
   f/8.9 reflector + CCD.
(V00) Kitt Peak-Bok  (N31.963125 W111.600190)  US/Arizona. Measurers T.
   Beuden, V. F. Carvajal, D. Fay, J. B. Fazekas, D. C. Fuls, A. R. Gibbs, A.
   D. Grauer, H. Gröller, J. K. Hogan, R. A. Kowalski, S. M. Larson, G. J.
   Leonard, D. Rankin, R. L. Seaman, F. C. Shelly, K. W. Wierzchoś. 2.25-m
   reflector + 4x4K mosaic CCD.

Orbital elements:  C1CLG85
   Perihelion 2026 Jan 8.618395 +/- 0.108 TT = 14:50:29.3 (JD 2461049.118395)
Epoch 2026 Feb 27.0 TT = JDT 2461098.5   Earth MOID: 0.0244   Ma: 0.0285
M  16.615535804 +/- 0.16            (J2000 ecliptic)             AutoNEOCP
n   0.336472170 +/- 0.003           Peri.   86.249249 +/- 0.57
a   2.047245613 +/- 0.0122          Node     7.997378 +/- 0.33
e   0.56580390 +/- 0.00276          Incl.    2.110262 +/- 0.025
P   2.92924                H 25.77  G  0.15   U  8.8
q 0.888906054 +/- 0.00185    Q 3.205585172 +/- 0.0245
From 12 observations 2026 Feb. 26-27 (23.4 hr); mean residual 0".12
Residuals in arcseconds: 
260226 V00  .23+  .04-    260226 V00  .19+  .20+    260227 H01  .08+  .04+    
260226 V00  .12-  .07-    260226 V00  .12+  .07-    260227 H01  .04-  .01+    
260226 V00  .10-  .23+    260226 V00  .21-  .09-    260227 H01  .06-  .01-    
260226 V00  .03-  .12-    260226 V00  .08-  .05-    260227 H01  .02+  .05-    

Ephemerides (geocentric):
Date (UTC) HH   RA             Dec           delta  r     elong  mag " sig PA
---- --------  ------------   ------------  ------ ------ -----  --- --------
2026 03 19 08  10 38 25.192   +11 06 42.02  .28101 1.2613 158.5 24.4 74.6 147
2026 03 19 09  10 38 27.475   +11 05 59.69  .28139 1.2616 158.5 24.4 74.7 147
2026 03 19 10  10 38 29.755   +11 05 17.44  .28177 1.2619 158.5 24.4 74.8 147
2026 03 19 11  10 38 32.034   +11 04 35.27  .28215 1.2623 158.4 24.4 74.9 147
2026 03 19 12  10 38 34.310   +11 03 53.18  .28254 1.2626 158.4 24.4 75.0 147
2026 03 19 13  10 38 36.584   +11 03 11.17  .28292 1.2629 158.4 24.4 75.1 147
2026 03 19 14  10 38 38.857   +11 02 29.24  .28330 1.2633 158.4 24.4 75.2 147
2026 03 19 15  10 38 41.127   +11 01 47.38  .28368 1.2636 158.3 24.4 75.3 147
2026 03 19 16  10 38 43.395   +11 01 05.61  .28407 1.2640 158.3 24.4 75.5 147
2026 03 19 17  10 38 45.662   +11 00 23.91  .28445 1.2643 158.3 24.4 75.6 147
2026 03 19 18  10 38 47.926   +10 59 42.29  .28483 1.2646 158.2 24.5 75.7 147
2026 03 19 19  10 38 50.189   +10 59 00.75  .28522 1.2650 158.2 24.5 75.8 147
2026 03 19 20  10 38 52.449   +10 58 19.28  .28560 1.2653 158.2 24.5 75.9 147
2026 03 19 21  10 38 54.708   +10 57 37.89  .28599 1.2656 158.2 24.5 76.0 147
2026 03 19 22  10 38 56.965   +10 56 56.58  .28637 1.2660 158.1 24.5 76.1 147
2026 03 19 23  10 38 59.220   +10 56 15.34  .28675 1.2663 158.1 24.5 76.2 147
2026 03 20 00  10 39 01.473   +10 55 34.18  .28714 1.2667 158.1 24.5 76.3 147
2026 03 20 01  10 39 03.724   +10 54 53.10  .28752 1.2670 158.0 24.5 76.4 147
2026 03 20 02  10 39 05.974   +10 54 12.09  .28791 1.2673 158.0 24.5 76.5 147
2026 03 20 03  10 39 08.222   +10 53 31.15  .28829 1.2677 158.0 24.5 76.6 147
2026 03 20 04  10 39 10.468   +10 52 50.29  .28868 1.2680 158.0 24.5 76.7 147
2026 03 20 05  10 39 12.712   +10 52 09.51  .28906 1.2684 157.9 24.5 76.8 147
2026 03 20 06  10 39 14.954   +10 51 28.79  .28945 1.2687 157.9 24.5 76.9 147
2026 03 20 07  10 39 17.195   +10 50 48.16  .28984 1.2690 157.9 24.5 77.0 147
2026 03 20 08  10 39 19.434   +10 50 07.59  .29022 1.2694 157.9 24.5 77.1 147
2026 03 20 09  10 39 21.671   +10 49 27.10  .29061 1.2697 157.8 24.5 77.2 147
2026 03 20 10  10 39 23.907   +10 48 46.68  .29100 1.2700 157.8 24.5 77.3 147
2026 03 20 11  10 39 26.140   +10 48 06.34  .29138 1.2704 157.8 24.5 77.4 147
2026 03 20 12  10 39 28.373   +10 47 26.07  .29177 1.2707 157.7 24.5 77.5 147
2026 03 20 13  10 39 30.603   +10 46 45.87  .29216 1.2711 157.7 24.5 77.6 147
2026 03 20 14  10 39 32.832   +10 46 05.74  .29254 1.2714 157.7 24.5 77.7 147
2026 03 20 15  10 39 35.059   +10 45 25.68  .29293 1.2717 157.7 24.5 77.8 147
2026 03 20 16  10 39 37.285   +10 44 45.70  .29332 1.2721 157.6 24.5 77.9 147
2026 03 20 17  10 39 39.509   +10 44 05.78  .29371 1.2724 157.6 24.5 78.0 147
2026 03 20 18  10 39 41.731   +10 43 25.94  .29410 1.2728 157.6 24.5 78.1 147
2026 03 20 19  10 39 43.952   +10 42 46.16  .29448 1.2731 157.5 24.6 78.2 147
2026 03 20 20  10 39 46.172   +10 42 06.46  .29487 1.2734 157.5 24.6 78.3 147
2026 03 20 21  10 39 48.389   +10 41 26.83  .29526 1.2738 157.5 24.6 78.4 147
2026 03 20 22  10 39 50.606   +10 40 47.27  .29565 1.2741 157.5 24.6 78.5 147
2026 03 20 23  10 39 52.820   +10 40 07.77  .29604 1.2745 157.4 24.6 78.6 147
2026 03 21 00  10 39 55.033   +10 39 28.35  .29643 1.2748 157.4 24.6 78.7 147
2026 03 21 01  10 39 57.245   +10 38 48.99  .29682 1.2751 157.4 24.6 78.7 147
2026 03 21 02  10 39 59.455   +10 38 09.71  .29721 1.2755 157.3 24.6 78.8 147
2026 03 21 03  10 40 01.664   +10 37 30.49  .29760 1.2758 157.3 24.6 78.9 147
2026 03 21 04  10 40 03.871   +10 36 51.34  .29799 1.2762 157.3 24.6 79.0 147
2026 03 21 05  10 40 06.077   +10 36 12.26  .29838 1.2765 157.3 24.6 79.1 147
2026 03 21 06  10 40 08.282   +10 35 33.24  .29877 1.2768 157.2 24.6 79.2 147
2026 03 21 07  10 40 10.485   +10 34 54.30  .29916 1.2772 157.2 24.6 79.3 147